Weather in Mapusa

India     15°36′01″N   73°48′56″E
temp.,
°C
wind,
m/s
gust,
m/s
humid.,
%
clouds,
%
prec.,
mm/h
press.,
hPa
HPBL,
m
24 may, tue
tue2423:30+29w45805 3.4 1007408
02:30+28w33825 0.4 1005398
05:30+28w34836 1.3 1006363
08:30+29w347811 0.6 1008599
11:30+30wsw447711 0.8 1009593
14:30+30w457480 0.2 1007626
17:30+30wnw557529 0.4 1007596
20:30+29wnw578210 0.1 1008439
25 may, wed
wed2523:30+29nw478260 0.2 1009470
02:30+29wnw568380 0.3 1008559
05:30+29nw56828 0.5 1008510
08:30+29nw56775 0.0 1010807
11:30+29wnw777376 0.0 1010675
14:30+30wnw677215 0.0 1008579
17:30+29wnw66745 0.0 1008689
20:30+29nw46795 0.0 1009569
26 may, thu
thu2623:30+29nw46790 0.0 1010682
02:30+28nw56794 0.0 1008718
05:30+28nnw467952 0.1 1009706
08:30+29nw566942 0.1 10101004
11:30+30wnw666657 0.1 1010881
14:30+29wnw566836 0.0 1008756
17:30+29nw45695 0.0 1008581
20:30+29nw46765 0.0 1009658
27 may, fri
fri2723:30+28nw467775 0.0 1010731
02:30+28nw567657 0.2 1008543
05:30+28nnw347560 0.4 1009253
08:30+30nnw46688 0.1 1010529
11:30+30nw66661 0.1 1010687
14:30+30wnw56660 0.0 1008706
17:30+29wnw45680 0.0 1008715
20:30+29wnw34740 0.0 1009213
28 may, sat
sat2823:30+29wsw35767 0.1 1009453
02:30+28w56762 0.4 1007562
05:30+28w45770 0.7 1008575
08:30+29wnw34744 0.4 1009640
11:30+29wnw55700 0.9 1009747
14:30+29w55690 0.0 1007742
17:30+29wnw45724 0.0 1007705
20:30+29w23775 0.0 1008595